Regional Weather Roundup
Issued by NWS Grand Forks, ND

Home | Current Version | Previous Version | Graphics & Text | Print | Product List | Glossary On
Versions: 1 2 3 4 5 6 7 8 9 10 11 12 13 14 15 16 17 18 19 20 21 22 23 24 25 26 27 28 29 30 31 32 33 34 35 36 37 38 39 40 41 42 43 44 45 46 47 48 49 50
000
ASUS43 KFGF 300710
RWRFGF
PRAIRIE TO PINES  WEATHER ROUNDUP
NATIONAL WEATHER SERVICE EASTERN NORTH DAKOTA/GRAND FORKS ND
200 AM CDT THU OCT 30 2014

 **SATELLITE DATA USED TO AUGMENT SKY COVER AT AUTOMATED STATIONS**
 *****  WEATHER ACROSS EASTERN NORTH DAKOTA  *****

CITY           SKY/WX    TMP DP  RH WIND       PRES   REMARKS
GRAND FORKS    CLOUDY    38  33  82 SE7       29.99R
GRAND FRKS AFB CLOUDY    37  35  92 E6        29.99R
GRAND FRKS NWS   N/A     36 N/A N/A SE7         N/A
DEVILS LAKE    CLEAR     34  25  69 NE10      29.96R
FARGO          CLOUDY    40  35  83 SE8       29.98S
WAHPETON ARPT  CLOUDY    37  34  87 SE10      29.99F
$$

 ***** WEATHER ACROSS CENTRAL AND WESTERN NORTH DAKOTA  *****

CITY           SKY/WX    TMP DP  RH WIND       PRES   REMARKS
BISMARCK       CLEAR     35  35 100 CALM      30.01R
MINOT          CLEAR     31  28  89 W13       30.04R WCI  21
JAMESTOWN      PTCLDY    37  36  96 SW5       29.94S
MINOT AFB      CLEAR     30  30  99 N10       30.05R WCI  21
GARRISON         N/A     34  32  92 NW7       30.02R
WILLISTON      CLEAR     35  31  85 NW10      30.12R
DICKINSON      CLEAR     34  31  88 NW8       30.06R
HETTINGER      CLEAR     37  33  85 NW10      30.07R
$$

 *****  OTHER AIRPORT OBSERVATIONS IN OUR AREA  *****

CITY           SKY/WX    TMP DP  RH WIND       PRES   REMARKS
WALHALLA       FAIR      27  27 100 NW3       30.05R
GRAFTON AIRPOR FAIR      32  28  86 E8        30.02R WCI  25
VALLEY CITY AR CLOUDY    39  39 100 SW6       29.95S
CANDO          FAIR      28  27  93 NE8       30.01R WCI  20
CAVALIER APRT  FAIR      34  30  86 NE7       30.04R
GWINNER        CLOUDY    41  41 100 SE8       29.98S
SHEYENNE NWR     N/A     40  39  95 S7        29.95S
ROLLA          FAIR      25  25 100 N10       30.04R WCI  15
 ***** THE ABOVE OBSERVATIONS ARE NON NWS ARE NOT QUALITY
       CONTROLLED AND MAY MIS-REPORT RAIN FOR SNOW...
$$

  *****  WEATHER ACROSS NORTHERN MINNESOTA  *****

CITY           SKY/WX    TMP DP  RH WIND       PRES   REMARKS
FLAG ISLAND    LGT RAIN  36  32  87 NW7       30.03S
WARROAD        CLOUDY    32  28  86 CALM      30.05S
ROSEAU         CLOUDY    32  28  86 CALM      30.04S
HALLOCK        MOCLDY    36  32  87 E6        30.03S
THF RVR FALLS  CLOUDY    36  30  80 NE7       30.02S
BAUDETTE       CLOUDY    34  31  88 CALM      30.04R
WASKISH        CLOUDY    34  32  93 CALM      30.05R
CROOKSTON      CLOUDY    37  36  93 SE7       30.02R
$$
  *****  WEATHER ACROSS CENTRAL AND WEST MINNESOTA  *****

CITY           SKY/WX    TMP DP  RH WIND       PRES   REMARKS
FOSSTON        DRIZZLE   34  32  93 CALM      30.01S
BEMIDJI        CLOUDY    33  31  90 SE3       30.02S
PARK RAPIDS    CLOUDY    33  30  88 S3        30.01S
ELBOW LAKE     LGT RAIN  37  35  91 SE9       30.01S
WADENA         DRIZZLE   34  32  93 SE5       30.01S
DETROIT LAKES  MOCLDY    36  34  93 SE5       30.00F
MOORHEAD       CLOUDY    39  37  93 S9        30.00R
FERGUS FALLS   CLOUDY    37  36  93 S9        30.02F
MORRIS MN      NOT AVBL
STAPLES        CLOUDY    36  30  80 CALM      30.02F
$$
  *****  WEATHER ELSEWHERE ACROSS MINNESOTA  *****

CITY           SKY/WX    TMP DP  RH WIND       PRES   REMARKS
DULUTH         DRIZZLE   36  32  85 W5        30.03F
INTRNTL FALLS  CLOUDY    34  33  96 CALM      30.03S
ELY            CLOUDY    34  34 100 W5        30.03R
CLOQUET        CLOUDY    36  34  93 CALM      30.04S
WHEATON        CLOUDY    36  34  93 SE9       30.02F
BRAINERD       CLOUDY    35  32  88 S3        30.04F
HIBBING        CLOUDY    36  32  85 CALM      30.04R
ALEXANDRIA     CLOUDY    38  33  82 S3        30.03F
SAINT CLOUD    CLOUDY    38  34  85 S5        30.05F
MINNEAPOLIS    CLOUDY    38  32  79 SE3       30.07F
$$

  *****  WEATHER ACROSS SOUTH DAKOTA  *****

CITY           SKY/WX    TMP DP  RH WIND       PRES   REMARKS
SIOUX FALLS    CLOUDY    47  33  58 S10       29.97F
BROOKINGS      NOT AVBL
WATERTOWN      CLOUDY    43  34  70 SE7       29.96S
HURON          CLOUDY    43  33  68 SW3       29.96S
SISSETON         N/A     39  38  96 SE5       29.98F
ABERDEEN       CLOUDY    43  36  76 CALM      29.96F
MITCHELL       PTCLDY    44  34  67 SW3       29.97S
PIERRE         CLEAR     46  35  65 W12       30.00R
MOBRIDGE       CLEAR     41  35  79 NW12      29.97R
RAPID CITY     CLEAR     41  32  70 NW10      30.12R
$$

  *****  SOME WEATHER IN NEARBY STATES *****

CITY           SKY/WX    TMP DP  RH WIND       PRES   REMARKS
GLASGOW MT     CLEAR     35  30  82 W3        30.17R
GREAT FALLS MT CLEAR     40  33  76 SW9       30.20R
CHEYENNE WY    CLOUDY    45  24  43 N10       30.26R
SCOTTSBLUFF NE PTCLDY    37  29  72 NW7       30.20R
OMAHA NE       PTCLDY    47  34  60 SE7       30.03F
DES MOINES IA  PTCLDY    42  33  70 S7        30.09F
DAVENPORT IA   CLEAR     32  27  81 CALM      30.14F
CHICAGO IL     PTCLDY    37  31  78 W3        30.13S
EAU CLAIRE WI  CLOUDY    35  32  88 CALM      30.09S
LA CROSSE WI   CLOUDY    36  32  85 SE5       30.11S
$$

  *****  SOME NATIONAL WEATHER *****

CITY           SKY/WX    TMP DP  RH WIND       PRES   REMARKS
LA GUARDIA NY  PTCLDY    52  46  80 NW6       29.94S
RALEIGH NC     MOCLDY    54  47  77 VRB3      30.01S
ATLANTA GA     CLEAR     49  45  86 NW6       30.04F
NEW ORLEANS LA PTCLDY    68  50  52 NE17      30.07S
OKLAHOMA CITY  CLEAR     49  37  63 S5        30.11S
ALBUQUERQUE NM CLEAR     55  15  20 NW7       30.27R
SALT LAKE CITY CLEAR     43  31  62 CALM      30.26R
LOS ANGELES CA PTCLDY    68  62  81 CALM      30.01R
BOISE ID       MOCLDY    48  41  76 CALM      30.19R
SEATTLE WA     CLOUDY    55  48  77 CALM      30.03F
$$

*** WEATHER ACROSS MANITOBA...SASKATCHEWAN AND ONTARIO ***
                ***ONTARIO***

CITY           SKY/WX    TMP DP  RH WIND       PRES   REMARKS
GERALDTON      PTCLDY    25  23  93 CALM      30.01S
THUNDER BAY    CLOUDY    37  36  93 NW2       30.04S
SIOUX LOOKOUT  FLURRIES  34  32  93 N3        30.01S
TORONTO        MOCLDY    41  36  81 NW9       30.01R
BIG TROUT LK   LGT SNOW  25  23  93 NW5       30.00S WCI  19
PICKLE LAKE    NOT AVBL
DRYDEN         CLOUDY    34  34 100 VRB2      30.01S
KENORA         CLOUDY    34  32  93 N2        30.02F
$$
                *** MANITOBA***

CITY           SKY/WX    TMP DP  RH WIND       PRES   REMARKS
BRANDON        MOCLDY    28  27  93 N8        30.10R WCI  20
DAUPHIN        CLOUDY    32  30  93 N10       30.18R WCI  24
ISLAND LAKE    FLURRIES  27  23  86 W13       30.07R WCI  16
PILOT MOUND      N/A     28  25  86 N9          N/A  WCI  20
THE PAS        CLOUDY    32  21  64 NW12      30.24R WCI  23
THOMPSON       CLOUDY    23  21  93 NW8       30.12R WCI  14
WINNIPEG       CLOUDY    34  30  86 N5        30.09R
LYNN LAKE      CLEAR     18  16  93 NW9       30.23R WCI   6
CHURCHILL      LGT SNOW  27  25  93 NW10      30.11R WCI  17
GILLAM         LGT SNOW  25  21  86 NW16      30.07S VSB 3/4 WCI  12
$$
                ***SASKATCHEWAN***

CITY           SKY/WX    TMP DP  RH WIND       PRES   REMARKS
ESTEVAN        CLOUDY    36  34  93 N8        30.10R
KINDERSLEY     CLOUDY    32  30  93 NE3       30.23R
LLOYDMINSTER   NOT AVBL
PRINCE ALBERT  CLOUDY    30  23  74 E7        30.30R WCI  23
REGINA         CLOUDY    32  30  93 N10       30.18R WCI  24
YORKTON        CLOUDY    30  30 100 N10       30.18R FOG     WCI  21
N. BATTLEFORD  CLOUDY    34  32  93 SE5       30.28R
LA RONGE       CLOUDY    28  21  74 N3        30.33R
SASKATOON      CLOUDY    32  30  93 NE8       30.26R WCI  25
SWIFT CURRENT  CLOUDY    30  30 100 N7        30.17R WCI  23
$$
NOTE: THESE ARE AUTOMATED STATIONS WITH LIMITED QUALITY CONTROL
      "FAIR" INDICATES FEW OR NO CLOUDS BELOW 12,000 FEET WITH NO
      SIGNIFICANT WEATHER AND/OR OBSTRUCTIONS TO VISIBILITY.
      SKY/WX - SKY CONDITION AND SIGNIFICANT WEATHER.
      TMP - AIR TEMPERATURE.    DP   - DEWPOINT TEMPERATURE.
      RH  - RELATIVE HUMIDITY.  PRES - PRESSURE.
      HX  - HEAT INDEX.         WCI  - WIND CHILL INDEX.
$



USA.gov is the U.S. government's official web portal to all federal, state and local government web resources and services.